Harlan, KY

9:35 PM EST on December 15, 2019 (GMT -0500)
Harlan

Weather History for KI35 - November, 2019

Change the Weather History Date:

Thursday, November 14, 2019

  Actual Average (KLOZ) Record (KLOZ)
Temperature  
Mean Temperature 36 °F -  
Max Temperature 48 °F 57 °F 79 °F (1993)
Min Temperature 25 °F 32 °F 12 °F (1969)
Degree Days  
Heating Degree Days 28    
Moisture  
Dew Point 23 °F    
Average Humidity 67    
Maximum Humidity 93    
Minimum Humidity 32    
Precipitation  
Precipitation 0.00 in - - ()
Sea Level Pressure  
Sea Level Pressure 30.27 in    
Wind  
Wind Speed 2 mph ()    
Max Wind Speed 7 mph    
Max Gust Speed -    
Visibility 10.0 miles    
Events      
Averages and records for this station are not official NWS values.
T = Trace of Precipitation, MM = Missing Value Source: Averaged Metar Reports

Daily Weather History Graph

Daily Weather History Graph

Search for Another Location

Airport or City:

Astronomy

Nov. 14, 2019 Rise Set
Actual Time 7:10 AM EST 5:24 PM EST
Civil Twilight 6:42 AM EST 5:52 PM EST
Nautical Twilight 6:11 AM EST 6:23 PM EST
Astronomical Twilight 5:40 AM EST 6:54 PM EST
Moon 7:11 PM EST (11/14) 9:03 AM EST (11/14)
Length of Visible Light 11h 09m
Length of Day
10h 14m
Waning Gibbous, 95% of the Moon is Illuminated
Nov 14
Waning Gibbous
Nov 19
Last Quarter
Nov 26
New
Dec 4
First Quarter
Dec 12
Full

Hourly Weather History & Observations

Time (EST) Temp. Windchill Dew Point Humidity Pressure Visibility Wind Dir Wind Speed Gust Speed Precip Events Conditions
12:15 AM 26.4 °F 22.4 °F 23.0 °F 87% 30.23 in 10.0 mi NE 3.5 mph - N/A   Clear
1:15 AM 29.8 °F 26.3 °F 21.9 °F 72% 30.23 in 10.0 mi ENE 3.5 mph - N/A   Clear
1:35 AM 29.7 °F 24.7 °F 21.7 °F 72% 30.24 in 10.0 mi ENE 4.6 mph - N/A   Clear
1:55 AM 30.2 °F 26.7 °F 21.6 °F 70% 30.24 in 10.0 mi East 3.5 mph - N/A   Clear
2:15 AM 26.6 °F - 22.8 °F 86% 30.24 in 10.0 mi Calm Calm - N/A   Clear
2:35 AM 27.0 °F 23.0 °F 23.0 °F 85% 30.25 in 10.0 mi ESE 3.5 mph - N/A   Clear
2:55 AM 26.4 °F 22.4 °F 22.1 °F 84% 30.25 in 10.0 mi ENE 3.5 mph - N/A   Clear
3:15 AM 26.8 °F 22.8 °F 22.1 °F 83% 30.24 in 10.0 mi ENE 3.5 mph - N/A   Clear
3:35 AM 29.1 °F - 21.9 °F 74% 30.24 in 10.0 mi Calm Calm - N/A   Clear
3:55 AM 28.2 °F 23.1 °F 22.3 °F 78% 30.23 in 10.0 mi ENE 4.6 mph - N/A   Clear
4:15 AM 28.9 °F 23.9 °F 22.1 °F 76% 30.23 in 10.0 mi ENE 4.6 mph - N/A   Clear
4:35 AM 30.7 °F - 20.7 °F 66% 30.24 in 10.0 mi Calm Calm - N/A   Clear
4:55 AM 29.7 °F 26.1 °F 21.4 °F 71% 30.24 in 10.0 mi ENE 3.5 mph - N/A   Clear
5:15 AM 31.1 °F - 20.5 °F 65% 30.25 in 10.0 mi Calm Calm - N/A   Clear
5:35 AM 30.9 °F - 20.3 °F 65% 30.25 in 10.0 mi Calm Calm - N/A   Clear
5:55 AM 27.5 °F - 22.1 °F 80% 30.26 in 10.0 mi Calm Calm - N/A   Clear
6:15 AM 26.2 °F - 22.6 °F 86% 30.28 in 10.0 mi Calm Calm - N/A   Clear
6:35 AM 27.0 °F - 22.5 °F 83% 30.29 in 10.0 mi Calm Calm - N/A   Clear
6:55 AM 25.9 °F - 23.9 °F 92% 30.28 in 10.0 mi Calm Calm - N/A   Clear
7:15 AM 25.9 °F - 23.5 °F 91% 30.30 in 10.0 mi Calm Calm - N/A   Clear
7:55 AM 26.6 °F - 23.5 °F 88% 30.30 in 10.0 mi Calm Calm - N/A   Clear
8:15 AM 26.4 °F - 23.7 °F 90% 30.31 in 10.0 mi Calm Calm - N/A   Clear
8:35 AM 26.6 °F - 24.1 °F 90% 30.31 in 10.0 mi Calm Calm - N/A   Clear
8:55 AM 27.0 °F - 24.8 °F 92% 30.32 in 10.0 mi Calm Calm - N/A   Clear
9:15 AM 27.5 °F - 25.0 °F 90% 30.33 in 10.0 mi Calm Calm - N/A   Clear
9:35 AM 29.3 °F - 25.2 °F 85% 30.32 in 10.0 mi Calm Calm - N/A   Clear
10:15 AM 35.8 °F 33.0 °F 24.1 °F 62% 30.30 in 10.0 mi SE 3.5 mph - N/A   Clear
10:35 AM 37.0 °F 34.5 °F 23.0 °F 57% 30.30 in 10.0 mi East 3.5 mph - N/A   Clear
10:55 AM 38.3 °F - 21.4 °F 51% 30.30 in 10.0 mi Calm Calm - N/A   Clear
11:15 AM 38.8 °F - 21.2 °F 49% 30.30 in 10.0 mi Calm Calm - N/A   Clear
11:35 AM 40.3 °F - 21.0 °F 46% 30.29 in 10.0 mi Calm Calm - N/A   Clear
11:55 AM 42.3 °F - 22.6 °F 46% 30.28 in 10.0 mi Calm Calm - N/A   Clear
12:15 PM 43.2 °F - 23.4 °F 46% 30.27 in 10.0 mi Calm Calm - N/A   Clear
12:35 PM 43.5 °F 41.9 °F 23.0 °F 44% 30.26 in 10.0 mi ESE 3.5 mph - N/A   Clear
1:15 PM 45.3 °F 44.0 °F 22.8 °F 41% 30.25 in 10.0 mi ESE 3.5 mph - N/A   Clear
1:35 PM 45.3 °F - 21.0 °F 38% 30.24 in 10.0 mi Calm Calm - N/A   Clear
1:55 PM 45.7 °F 44.4 °F 20.8 °F 37% 30.23 in 10.0 mi WSW 3.5 mph - N/A   Clear
2:15 PM 46.2 °F 42.7 °F 20.1 °F 35% 30.23 in 10.0 mi West 6.9 mph - N/A   Clear
2:35 PM 46.6 °F - 19.9 °F 35% 30.23 in 10.0 mi Calm Calm - N/A   Clear
2:55 PM 46.4 °F - 19.4 °F 34% 30.23 in 10.0 mi Calm Calm - N/A   Clear
3:15 PM 48.2 °F - 20.1 °F 33% 30.23 in 10.0 mi West 5.8 mph - N/A   Clear
3:35 PM 47.8 °F - 19.9 °F 33% 30.23 in 10.0 mi WNW 5.8 mph - N/A   Clear
3:55 PM 47.3 °F - 19.4 °F 33% 30.24 in 10.0 mi WSW 4.6 mph - N/A   Clear
4:15 PM 47.7 °F - 18.7 °F 32% 30.23 in 10.0 mi SW 4.6 mph - N/A   Clear
4:35 PM 47.3 °F - 18.5 °F 32% 30.23 in 10.0 mi Calm Calm - N/A   Clear
4:55 PM 46.6 °F - 20.1 °F 35% 30.23 in 10.0 mi Calm Calm - N/A   Clear
5:35 PM 43.0 °F - 19.2 °F 39% 30.24 in 10.0 mi Calm Calm - N/A   Clear
5:55 PM 40.3 °F - 19.8 °F 44% 30.25 in 10.0 mi Calm Calm - N/A   Clear
6:15 PM 38.8 °F - 20.1 °F 47% 30.26 in 10.0 mi Calm Calm - N/A   Mostly Cloudy
6:35 PM 37.8 °F - 24.1 °F 58% 30.27 in 10.0 mi Calm Calm - N/A   Mostly Cloudy
6:55 PM 35.8 °F - 24.1 °F 62% 30.27 in 10.0 mi Calm Calm - N/A   Mostly Cloudy
7:35 PM 34.2 °F - 26.8 °F 74% 30.27 in 10.0 mi Calm Calm - N/A   Clear
7:55 PM 34.2 °F - 27.1 °F 75% 30.28 in 10.0 mi Calm Calm - N/A   Clear
8:15 PM 33.1 °F - 26.4 °F 77% 30.28 in 10.0 mi Calm Calm - N/A   Clear
9:15 PM 30.7 °F - 27.0 °F 86% 30.28 in 10.0 mi Calm Calm - N/A   Clear
9:35 PM 32.0 °F - 27.3 °F 83% 30.28 in 10.0 mi Calm Calm - N/A   Clear
9:55 PM 29.7 °F - 27.1 °F 90% 30.28 in 10.0 mi Calm Calm - N/A   Clear
10:15 PM 30.2 °F - 27.1 °F 88% 30.30 in 10.0 mi Calm Calm - N/A   Clear
10:35 PM 29.7 °F - 27.3 °F 91% 30.30 in 10.0 mi Calm Calm - N/A   Clear
10:55 PM 29.3 °F 25.6 °F 27.5 °F 93% 30.30 in 10.0 mi East 3.5 mph - N/A   Clear
11:15 PM 29.3 °F - 27.5 °F 93% 30.30 in 10.0 mi Calm Calm - N/A   Clear
11:35 PM 30.0 °F - 27.5 °F 90% 30.30 in 10.0 mi Calm Calm - N/A   Clear
11:55 PM 29.5 °F - 27.5 °F 92% 30.30 in 10.0 mi Calm Calm - N/A   Clear